{"data":{"norad_id":59858,"intl_designator":"2024-098A","name":"STARLINK-31654","alt_names":[],"object_type":"PAYLOAD","status":"ACTIVE","operator":null,"country":"US","launch_date":"2024-05-24","launch_site_code":"AFETR","launch_vehicle":null,"mission":null,"orbit_class":"UNKNOWN","rcs_meters":null,"size_class":null,"mass_kg":null,"dimensions":null,"purposes":["comms"],"wikipedia_slug":null,"has_3d_model":false,"image_url":null,"decayed_at":null,"tle_current":{"epoch":"2026-09-21T22:11:50.102880Z","epoch_age_seconds":51425,"freshness":"FRESH","line1":"1 59858U 24098A   26264.92488545  .00003194  00000+0  12545-3 0  9999","line2":"2 59858  43.0039 242.3401 0000941 275.3784  84.6960 15.27600412131930","mean_motion":15.27600412,"eccentricity":9.41e-5,"inclination_deg":43.0039,"raan_deg":242.3401,"arg_perigee_deg":275.3784,"mean_anomaly_deg":84.696,"bstar":0.00012545,"rev_number":13193,"period_min":94.26548910881,"perigee_km":482.34234398884,"apogee_km":483.63360770929,"semimajor_km":6861.1249758491,"source":"CELESTRAK","updated_at":"2026-09-22T09:00:49.100214Z"}}}